Weather History for Homer, AK

Change the Weather History Date:

Thursday, November 24, 2011

  Actual Average Record
Temperature  
Mean Temperature 16 °F -  
Max Temperature 21 °F 33 °F 47 °F (1943)
Min Temperature 12 °F 22 °F -5 °F (1963)
Degree Days  
Heating Degree Days 48    
Moisture  
Dew Point 15 °F    
Average Humidity 87    
Maximum Humidity 93    
Minimum Humidity 74    
Precipitation  
Precipitation 0.00 in - - ()
Sea Level Pressure  
Sea Level Pressure 29.09 in    
Wind  
Wind Speed 14 mph (WSW)    
Max Wind Speed 20 mph    
Max Gust Speed 26 mph    
Visibility 5 miles    
Events Snow    
Averages and records for this station are not official NWS values.
T = Trace of Precipitation, MM = Missing Value Source: NWS Daily Summary

Daily Weather History Graph

Daily Weather History Graph

Search for Another Location

Airport:

Trip Planner

Search our weather history database for the weather conditions in past years. The results will help you decide how hot, cold, wet, or windy it might be!

Date:

Astronomy

Nov. 24, 2011 Rise Set
Actual Time 9:23 AM AKST 4:21 PM AKST
Civil Twilight 8:31 AM AKST 5:12 PM AKST
Nautical Twilight 7:39 AM AKST 6:05 PM AKST
Astronomical Twilight 6:49 AM AKST 6:54 PM AKST
Moon 9:03 AM AKST (11/24) 3:49 PM AKST (11/24)
Length of Visible Light 8h 40m
Length of Day
6h 58m
Waning Crescent, 0% of the Moon is Illuminated
Nov 24
Waning Crescent
Nov 24
New
Dec 2
First Quarter
Dec 10
Full
Dec 17
Last Quarter

Hourly Weather History & Observations

Time (AKST) Temp. Windchill Dew Point Humidity Pressure Visibility Wind Dir Wind Speed Gust Speed Precip Events Conditions
12:06 AM 17.6 °F 2.2 °F 14.0 °F 86% 29.06 in 1.8 mi SW 17.3 mph 21.9 mph 0.00 in Snow Light Snow
12:35 AM 17.6 °F 1.7 °F 15.8 °F 93% 29.06 in 2.5 mi SW 18.4 mph - 0.00 in Snow Light Snow
12:48 AM 17.6 °F 3.2 °F 14.0 °F 86% 29.06 in 1.8 mi SW 15.0 mph - 0.00 in Snow Light Snow
12:53 AM 18.0 °F 2.6 °F 15.1 °F 88% 29.07 in 1.8 mi SW 17.3 mph - 0.00 in Snow Light Snow
1:26 AM 17.6 °F 2.7 °F 14.0 °F 86% 29.06 in 2.5 mi SW 16.1 mph - 0.00 in Snow Light Snow
1:37 AM 17.6 °F 3.2 °F 14.0 °F 86% 29.06 in 3.0 mi SW 15.0 mph - 0.00 in Snow Light Snow
1:48 AM 19.4 °F 5.5 °F 15.8 °F 86% 29.06 in 1.8 mi SSW 15.0 mph - 0.00 in Snow Light Snow
1:53 AM 19.0 °F 5.6 °F 15.1 °F 85% 29.06 in 1.5 mi SW 13.8 mph 23.0 mph 0.00 in Snow Light Snow
2:45 AM 19.4 °F 3.6 °F 15.8 °F 86% 29.06 in 1.2 mi SW 19.6 mph 26.5 mph 0.01 in Snow Light Snow
3:43 AM 19.4 °F 4.1 °F 15.8 °F 86% 29.06 in 2.5 mi SW 18.4 mph - 0.00 in Snow Light Snow
3:50 AM 19.4 °F 5.0 °F 15.8 °F 86% 29.06 in 2.5 mi WSW 16.1 mph - 0.00 in Snow Light Snow
3:56 AM 19.4 °F 5.5 °F 15.8 °F 86% 29.06 in 3.0 mi WSW 15.0 mph - 0.00 in Snow Light Snow
4:02 AM 19.4 °F 4.1 °F 15.8 °F 86% 29.06 in 1.8 mi SW 18.4 mph 25.3 mph 0.00 in Snow Light Snow
4:16 AM 19.4 °F 5.0 °F 15.8 °F 86% 29.06 in 2.0 mi WSW 16.1 mph - 0.00 in Snow Light Snow
4:43 AM 19.4 °F 6.6 °F 15.8 °F 86% 29.05 in 3.0 mi WSW 12.7 mph - 0.00 in Snow Light Snow
4:53 AM 19.0 °F 5.6 °F 16.0 °F 88% 29.06 in 2.5 mi WSW 13.8 mph 23.0 mph 0.00 in Snow Light Snow
5:05 AM 19.4 °F 5.0 °F 15.8 °F 86% 29.05 in 3.0 mi WSW 16.1 mph - 0.00 in Snow Light Snow
5:12 AM 19.4 °F 5.5 °F 15.8 °F 86% 29.05 in 2.5 mi WSW 15.0 mph - 0.00 in Snow Light Snow
5:27 AM 19.4 °F 3.6 °F 15.8 °F 86% 29.05 in 1.5 mi SW 19.6 mph 24.2 mph 0.00 in Snow Light Snow
5:38 AM 19.4 °F 5.0 °F 15.8 °F 86% 29.05 in 2.5 mi WSW 16.1 mph - 0.00 in Snow Light Snow
5:51 AM 19.4 °F 4.1 °F 15.8 °F 86% 29.05 in 1.5 mi WSW 18.4 mph 24.2 mph 0.00 in Snow Light Snow
5:53 AM 19.0 °F 4.5 °F 16.0 °F 88% 29.05 in 1.5 mi SW 16.1 mph - 0.00 in Snow Light Snow
6:00 AM 19.4 °F 4.1 °F 15.8 °F 86% 29.05 in 1.0 mi SW 18.4 mph 24.2 mph 0.00 in Snow Light Snow
6:53 AM 19.9 °F 4.3 °F 18.0 °F 92% 29.05 in 1.0 mi SW 19.6 mph - 0.00 in Snow Light Snow
7:25 AM 19.4 °F 3.6 °F 17.6 °F 93% 29.05 in 2.0 mi SW 19.6 mph 26.5 mph 0.00 in Snow Light Snow
7:53 AM 19.9 °F 8.6 °F 17.1 °F 89% 29.05 in 2.0 mi WSW 10.4 mph - 0.00 in   Overcast
8:00 AM 19.4 °F 7.9 °F 15.8 °F 86% 29.04 in 4.0 mi WSW 10.4 mph - N/A   Overcast
8:53 AM 19.0 °F 13.9 °F 16.0 °F 88% 29.06 in 10.0 mi West 3.5 mph - 0.00 in   Overcast
9:53 AM 18.0 °F 12.7 °F 16.0 °F 92% 29.07 in 4.0 mi West 3.5 mph - 0.00 in Snow Light Snow
10:53 AM 19.0 °F 13.9 °F 17.1 °F 92% 29.08 in 10.0 mi NW 3.5 mph - 0.00 in   Overcast
11:53 AM 21.0 °F 11.4 °F 17.1 °F 85% 29.08 in 10.0 mi WSW 8.1 mph - N/A   Overcast
12:53 PM 21.0 °F 14.6 °F 17.1 °F 85% 29.08 in 10.0 mi West 4.6 mph - N/A   Overcast
1:53 PM 21.0 °F 16.2 °F 17.1 °F 85% 29.08 in 10.0 mi Variable 3.5 mph - N/A   Overcast
2:00 PM 21.2 °F - 17.6 °F 86% 29.08 in 10.0 mi Calm Calm - N/A   Overcast
2:53 PM 21.0 °F 16.2 °F 17.1 °F 85% 29.09 in 10.0 mi ENE 3.5 mph - N/A   Overcast
3:53 PM 19.9 °F 13.4 °F 17.1 °F 89% 29.10 in 7.0 mi NE 4.6 mph - 0.00 in   Overcast
4:53 PM 19.0 °F 11.1 °F 17.1 °F 92% 29.11 in 10.0 mi NNE 5.8 mph - 0.00 in   Overcast
5:00 PM 19.4 °F 11.5 °F 17.6 °F 93% 29.11 in 10.0 mi NNE 5.8 mph - N/A   Overcast
5:53 PM 19.0 °F 12.3 °F 16.0 °F 88% 29.13 in 10.0 mi NE 4.6 mph - N/A   Overcast
6:53 PM 19.0 °F 10.0 °F 15.1 °F 85% 29.15 in 10.0 mi NE 6.9 mph - N/A   Overcast
7:53 PM 18.0 °F - 15.1 °F 88% 29.18 in 10.0 mi Calm Calm - N/A   Overcast
8:53 PM 17.1 °F 11.7 °F 10.0 °F 74% 29.20 in 10.0 mi NNW 3.5 mph - N/A   Overcast
9:53 PM 14.0 °F 8.2 °F 8.1 °F 77% 29.24 in 10.0 mi North 3.5 mph - N/A   Clear
10:53 PM 12.0 °F 5.9 °F 8.1 °F 84% 29.26 in 10.0 mi North 3.5 mph - N/A   Clear
11:53 PM 12.0 °F 5.9 °F 7.0 °F 80% 29.29 in 10.0 mi North 3.5 mph - N/A   Clear